Total_Precipitation_Accumulation
2.03 1.57 1.02 0.61 0.49 0.45 0.42 0.54 0.65 0.65 0.64 0.69 0.71 0.60 0.58 0.53 0.52 0.55 0.53 0.58 0.72 0.92 1.14 1.28 1.44 1.65 1.83 1.83 1.84 1.95 2.06 2.18 2.28 2.39 2.36 2.25 2.20 2.11 1.99 1.83 1.68 1.49 1.37 1.39
1.71 1.16 0.54 0.39 0.42 0.41 0.41 0.48 0.56 0.58 0.58 0.68 0.72 0.65 0.58 0.59 0.57 0.54 0.52 0.53 0.67 0.84 1.00 1.17 1.34 1.49 1.65 1.76 1.81 1.95 2.08 2.14 2.13 2.23 2.38 2.29 2.33 2.32 2.25 2.14 1.96 1.77 1.60 1.55
1.33 0.78 0.44 0.46 0.51 0.45 0.36 0.40 0.47 0.53 0.58 0.72 0.81 0.80 0.62 0.59 0.57 0.50 0.48 0.53 0.67 0.83 0.93 1.06 1.21 1.32 1.44 1.63 1.84 1.94 2.01 2.11 2.14 2.34 2.74 2.68 2.55 2.49 2.42 2.31 2.17 2.00 1.85 1.76
1.17 0.67 0.50 0.50 0.45 0.40 0.38 0.31 0.39 0.48 0.69 0.85 0.85 1.06 0.70 0.65 0.62 0.52 0.48 0.53 0.68 0.79 0.83 0.93 1.15 1.23 1.29 1.44 1.69 1.95 2.05 2.18 2.33 2.53 2.73 2.77 2.52 2.33 2.29 2.27 2.25 2.19 1.97 1.87
1.11 0.76 0.62 0.56 0.42 0.38 0.39 0.30 0.38 0.46 0.60 0.75 0.64 0.82 0.75 0.61 0.64 0.64 0.60 0.60 0.72 0.81 0.86 0.92 1.12 1.21 1.21 1.30 1.47 1.71 1.97 2.08 2.32 2.49 2.57 2.72 2.52 2.25 2.25 2.25 2.20 2.19 2.10 1.90
0.77 0.65 0.68 0.57 0.40 0.38 0.40 0.40 0.46 0.54 0.67 0.76 0.54 0.65 0.73 0.66 0.66 0.66 0.68 0.74 0.84 0.88 0.88 0.94 1.09 1.10 1.08 1.13 1.25 1.40 1.62 1.74 1.87 2.07 2.27 2.44 2.46 2.36 2.25 2.13 2.06 2.02 1.99 1.95
0.91 0.74 0.61 0.52 0.51 0.45 0.46 0.63 0.85 0.95 0.86 0.65 0.44 0.49 0.68 0.62 0.59 0.61 0.70 0.76 0.81 0.83 0.81 0.90 1.00 0.94 0.91 0.96 1.07 1.18 1.29 1.42 1.52 1.65 1.86 2.05 2.18 2.27 2.27 2.17 2.06 1.95 1.83 1.77
0.91 0.99 0.58 0.47 0.48 0.47 0.40 0.50 0.69 0.72 0.51 0.40 0.30 0.43 0.60 0.59 0.60 0.59 0.67 0.68 0.67 0.69 0.73 0.87 1.03 0.97 0.89 0.89 0.90 0.93 1.04 1.21 1.31 1.36 1.52 1.66 1.73 1.79 1.84 1.92 1.90 1.86 1.74 1.65
0.52 0.63 0.39 0.30 0.26 0.29 0.38 0.34 0.30 0.52 0.37 0.29 0.31 0.38 0.52 0.55 0.55 0.56 0.61 0.59 0.57 0.60 0.70 0.81 0.88 0.86 0.80 0.80 0.79 0.79 0.88 1.02 1.06 1.08 1.17 1.23 1.29 1.35 1.41 1.48 1.51 1.51 1.54 1.56
0.28 0.41 0.33 0.24 0.24 0.22 0.22 0.20 0.28 0.56 0.51 0.35 0.27 0.31 0.51 0.54 0.54 0.53 0.51 0.50 0.50 0.55 0.63 0.66 0.65 0.63 0.63 0.68 0.74 0.73 0.77 0.82 0.82 0.83 0.88 0.91 0.92 0.99 1.08 1.17 1.17 1.16 1.21 1.28
0.17 0.28 0.29 0.24 0.27 0.21 0.16 0.19 0.25 0.36 0.34 0.31 0.23 0.32 0.35 0.42 0.46 0.44 0.41 0.42 0.44 0.48 0.48 0.48 0.46 0.46 0.49 0.53 0.57 0.57 0.60 0.66 0.66 0.62 0.64 0.68 0.70 0.74 0.84 0.96 1.03 1.06 1.06 1.04
0.13 0.21 0.24 0.18 0.10 0.07 0.08 0.12 0.22 0.39 0.28 0.22 0.20 0.27 0.25 0.28 0.31 0.31 0.30 0.32 0.33 0.37 0.37 0.39 0.39 0.39 0.38 0.40 0.43 0.48 0.51 0.56 0.54 0.49 0.49 0.52 0.55 0.57 0.63 0.73 0.81 0.86 0.91 0.93
0.14 0.20 0.26 0.25 0.17 0.11 0.11 0.12 0.16 0.32 0.50 0.32 0.25 0.27 0.25 0.24 0.23 0.23 0.24 0.26 0.27 0.26 0.26 0.26 0.27 0.29 0.29 0.33 0.37 0.40 0.40 0.42 0.41 0.41 0.42 0.42 0.43 0.43 0.47 0.52 0.58 0.60 0.66 0.76
0.19 0.15 0.18 0.20 0.14 0.19 0.21 0.12 0.16 0.51 0.66 0.24 0.11 0.17 0.18 0.18 0.18 0.21 0.24 0.23 0.20 0.19 0.17 0.16 0.16 0.16 0.18 0.23 0.27 0.28 0.27 0.30 0.34 0.35 0.37 0.38 0.37 0.38 0.40 0.40 0.42 0.43 0.45 0.50
0.15 0.15 0.09 0.08 0.10 0.22 0.22 0.14 0.17 0.32 0.24 0.21 0.09 0.09 0.11 0.11 0.14 0.17 0.19 0.16 0.12 0.10 0.09 0.07 0.09 0.10 0.13 0.16 0.19 0.20 0.23 0.28 0.33 0.34 0.31 0.31 0.34 0.35 0.34 0.33 0.31 0.29 0.28 0.30
0.14 0.16 0.10 0.08 0.07 0.13 0.16 0.10 0.08 0.09 0.07 0.07 0.06 0.07 0.06 0.10 0.14 0.17 0.16 0.13 0.10 0.08 0.06 0.05 0.05 0.06 0.07 0.12 0.21 0.26 0.31 0.33 0.32 0.33 0.30 0.29 0.31 0.31 0.31 0.28 0.24 0.23 0.23 0.24
0.10 0.14 0.20 0.11 0.04 0.12 0.15 0.09 0.08 0.06 0.04 0.06 0.08 0.06 0.08 0.15 0.21 0.23 0.17 0.10 0.07 0.05 0.04 0.03 0.03 0.05 0.08 0.16 0.31 0.44 0.51 0.47 0.41 0.38 0.34 0.31 0.31 0.31 0.32 0.32 0.31 0.30 0.28 0.29
0.09 0.15 0.29 0.18 0.11 0.23 0.15 0.07 0.05 0.04 0.05 0.06 0.07 0.07 0.09 0.12 0.17 0.17 0.10 0.05 0.04 0.04 0.03 0.03 0.03 0.06 0.11 0.20 0.32 0.42 0.52 0.56 0.52 0.49 0.47 0.43 0.43 0.45 0.47 0.49 0.49 0.47 0.47 0.47
0.06 0.18 0.35 0.27 0.19 0.12 0.06 0.05 0.07 0.07 0.07 0.06 0.07 0.05 0.05 0.06 0.11 0.11 0.07 0.04 0.04 0.03 0.03 0.02 0.03 0.06 0.12 0.19 0.26 0.38 0.49 0.54 0.58 0.65 0.71 0.70 0.68 0.71 0.73 0.78 0.80 0.77 0.74 0.72
0.07 0.16 0.39 0.34 0.26 0.10 0.05 0.03 0.05 0.08 0.12 0.06 0.07 0.06 0.04 0.05 0.11 0.11 0.09 0.07 0.06 0.04 0.04 0.05 0.06 0.08 0.14 0.22 0.32 0.50 0.63 0.68 0.71 0.77 0.83 0.81 0.80 0.80 0.80 0.80 0.80 0.77 0.72 0.69
0.14 0.26 0.37 0.32 0.28 0.11 0.06 0.03 0.04 0.13 0.14 0.06 0.07 0.07 0.07 0.09 0.11 0.08 0.09 0.11 0.12 0.11 0.12 0.14 0.16 0.21 0.29 0.37 0.51 0.74 0.85 0.83 0.78 0.76 0.72 0.66 0.62 0.58 0.55 0.52 0.50 0.47 0.44 0.41
0.11 0.17 0.19 0.21 0.28 0.16 0.06 0.05 0.11 0.14 0.07 0.05 0.06 0.08 0.09 0.08 0.06 0.06 0.07 0.09 0.14 0.17 0.18 0.21 0.26 0.33 0.40 0.43 0.49 0.59 0.61 0.58 0.54 0.48 0.41 0.34 0.33 0.31 0.29 0.29 0.27 0.24 0.22 0.20
0.10 0.13 0.17 0.19 0.19 0.11 0.07 0.08 0.08 0.07 0.06 0.06 0.07 0.08 0.08 0.07 0.06 0.06 0.06 0.07 0.08 0.11 0.12 0.13 0.15 0.16 0.18 0.19 0.21 0.22 0.22 0.20 0.20 0.17 0.14 0.12 0.12 0.13 0.13 0.14 0.14 0.11 0.10 0.10
0.10 0.08 0.12 0.14 0.09 0.05 0.05 0.04 0.05 0.05 0.06 0.05 0.07 0.07 0.07 0.08 0.06 0.06 0.06 0.06 0.07 0.07 0.06 0.08 0.08 0.07 0.06 0.06 0.06 0.06 0.06 0.08 0.09 0.08 0.08 0.07 0.07 0.07 0.09 0.10 0.11 0.12 0.11 0.10
0.09 0.10 0.13 0.13 0.08 0.06 0.05 0.04 0.05 0.04 0.03 0.03 0.04 0.04 0.05 0.06 0.07 0.07 0.08 0.07 0.07 0.07 0.07 0.07 0.07 0.07 0.06 0.06 0.05 0.05 0.05 0.06 0.08 0.10 0.10 0.10 0.09 0.09 0.10 0.12 0.13 0.15 0.15 0.16
0.07 0.10 0.16 0.15 0.07 0.09 0.07 0.04 0.04 0.04 0.04 0.03 0.03 0.04 0.04 0.05 0.05 0.05 0.06 0.06 0.06 0.07 0.07 0.08 0.08 0.07 0.07 0.08 0.08 0.08 0.08 0.10 0.12 0.13 0.14 0.15 0.16 0.15 0.15 0.15 0.16 0.19 0.21 0.23